Weather History for Chippewa, MI

Change the Weather History Date:

Tuesday, May 28, 2013

  Actual Average Record
Temperature  
Mean Temperature 52 °F -  
Max Temperature 55 °F 65 °F 93 °F (2001)
Min Temperature 48 °F 37 °F 24 °F (1983)
Degree Days  
Heating Degree Days 14    
Growing Degree Days 2 (Base 50)    
Moisture  
Dew Point 44 °F    
Average Humidity 77    
Maximum Humidity 100    
Minimum Humidity 43    
Precipitation  
Precipitation 0.08 in - - ()
Sea Level Pressure  
Sea Level Pressure 29.91 in    
Wind  
Wind Speed 11 mph (ESE)    
Max Wind Speed 22 mph    
Max Gust Speed 26 mph    
Visibility 8 miles    
Events      
Averages and records for this station are not official NWS values.
T = Trace of Precipitation, MM = Missing Value Source: NWS Daily Summary

Daily Weather History Graph

Daily Weather History Graph

Search for Another Location

Airport:

Trip Planner

Search our weather history database for the weather conditions in past years. The results will help you decide how hot, cold, wet, or windy it might be!

Date:

Astronomy

May. 28, 2013 Rise Set
Actual Time 5:52 AM EDT 9:18 PM EDT
Civil Twilight 5:15 AM EDT 9:56 PM EDT
Nautical Twilight 4:26 AM EDT 10:45 PM EDT
Astronomical Twilight 3:22 AM EDT 11:49 PM EDT
Moon No Moon Rise 9:44 AM EDT (5/28)
Length of Visible Light 16h 41m
Length of Day
15h 26m
Waning Gibbous, 83% of the Moon is Illuminated
May 28
Waning Gibbous
May 31
Last Quarter
Jun 8
New
Jun 16
First Quarter
Jun 23
Full

Hourly Weather History & Observations

Time (EDT) Temp. Dew Point Humidity Pressure Visibility Wind Dir Wind Speed Gust Speed Precip Events Conditions
12:15 AM 48.2 °F 30.2 °F 50% 30.05 in 10.0 mi SE 6.9 mph - N/A   Clear
12:35 AM 48.2 °F 30.2 °F 50% 30.04 in 10.0 mi SE 4.6 mph - N/A   Clear
12:55 AM 50.0 °F 30.2 °F 47% 30.04 in 10.0 mi ESE 6.9 mph - N/A   Clear
1:15 AM 50.0 °F 28.4 °F 43% 30.04 in 10.0 mi ESE 9.2 mph - N/A   Clear
1:35 AM 50.0 °F 28.4 °F 43% 30.03 in 10.0 mi ESE 9.2 mph - N/A   Clear
1:55 AM 50.0 °F 28.4 °F 43% 30.03 in 10.0 mi ESE 10.4 mph - N/A   Clear
2:15 AM 48.2 °F 30.2 °F 50% 30.03 in 10.0 mi ESE 8.1 mph - N/A   Clear
2:35 AM 48.2 °F 30.2 °F 50% 30.03 in 10.0 mi ESE 6.9 mph - N/A   Clear
2:55 AM 48.2 °F 30.2 °F 50% 30.02 in 10.0 mi ESE 6.9 mph - N/A   Clear
3:15 AM 48.2 °F 30.2 °F 50% 30.02 in 10.0 mi ESE 8.1 mph - N/A   Clear
3:35 AM 48.2 °F 30.2 °F 50% 30.01 in 10.0 mi ESE 10.4 mph - N/A   Clear
3:55 AM 48.2 °F 30.2 °F 50% 30.01 in 10.0 mi ESE 9.2 mph - N/A   Clear
4:15 AM 48.2 °F 30.2 °F 50% 30.00 in 10.0 mi ESE 9.2 mph - N/A   Clear
4:35 AM 48.2 °F 30.2 °F 50% 29.99 in 10.0 mi East 8.1 mph - N/A   Scattered Clouds
4:55 AM 48.2 °F 35.6 °F 62% 29.98 in 10.0 mi East 10.4 mph - N/A   Overcast
5:15 AM 50.0 °F 37.4 °F 62% 29.98 in 10.0 mi East 10.4 mph - N/A   Overcast
5:35 AM 50.0 °F 37.4 °F 62% 29.98 in 10.0 mi East 10.4 mph - N/A   Overcast
5:55 AM 48.2 °F 37.4 °F 66% 29.97 in 10.0 mi East 10.4 mph - N/A   Overcast
6:15 AM 50.0 °F 39.2 °F 66% 29.98 in 10.0 mi East 10.4 mph - N/A   Overcast
6:35 AM 51.8 °F 39.2 °F 62% 29.97 in 10.0 mi East 11.5 mph - N/A   Overcast
6:55 AM 51.8 °F 39.2 °F 62% 29.98 in 10.0 mi ESE 9.2 mph - N/A   Overcast
7:15 AM 51.8 °F 39.2 °F 62% 29.98 in 10.0 mi ESE 9.2 mph - N/A   Overcast
7:35 AM 51.8 °F 39.2 °F 62% 29.97 in 10.0 mi ESE 11.5 mph - N/A   Overcast
7:55 AM 51.8 °F 39.2 °F 62% 29.97 in 10.0 mi East 12.7 mph - N/A   Overcast
8:15 AM 51.8 °F 39.2 °F 62% 29.97 in 10.0 mi ESE 12.7 mph - N/A   Overcast
8:35 AM 53.6 °F 39.2 °F 58% 29.96 in 10.0 mi ESE 15.0 mph 18.4 mph N/A   Overcast
8:55 AM 53.6 °F 39.2 °F 58% 29.95 in 10.0 mi ESE 15.0 mph - N/A   Overcast
9:15 AM 53.6 °F 41.0 °F 62% 29.95 in 10.0 mi ESE 15.0 mph 19.6 mph N/A   Overcast
9:35 AM 55.4 °F 41.0 °F 58% 29.95 in 10.0 mi ESE 11.5 mph - N/A   Overcast
9:55 AM 53.6 °F 41.0 °F 62% 29.95 in 10.0 mi ESE 15.0 mph 20.7 mph N/A   Overcast
10:15 AM 53.6 °F 42.8 °F 67% 29.95 in 10.0 mi ESE 16.1 mph 23.0 mph N/A   Overcast
10:35 AM 53.6 °F 46.4 °F 77% 29.94 in 10.0 mi ESE 17.3 mph 23.0 mph N/A   Overcast
10:55 AM 51.8 °F 48.2 °F 88% 29.94 in 9.0 mi ESE 18.4 mph 23.0 mph N/A   Overcast
11:15 AM 51.8 °F 48.2 °F 88% 29.93 in 8.0 mi East 15.0 mph 23.0 mph N/A   Overcast
11:35 AM 53.6 °F 48.2 °F 82% 29.93 in 10.0 mi ESE 16.1 mph - N/A   Overcast
11:55 AM 53.6 °F 46.4 °F 77% 29.92 in 10.0 mi ESE 19.6 mph 26.5 mph N/A   Overcast
12:15 PM 53.6 °F 46.4 °F 77% 29.92 in 10.0 mi ESE 21.9 mph 26.5 mph N/A   Overcast
12:35 PM 55.4 °F 46.4 °F 72% 29.92 in 10.0 mi ESE 16.1 mph 21.9 mph N/A   Overcast
12:55 PM 55.4 °F 46.4 °F 72% 29.92 in 10.0 mi ESE 21.9 mph 25.3 mph N/A   Overcast
1:15 PM 53.6 °F 46.4 °F 77% 29.92 in 10.0 mi ESE 13.8 mph 19.6 mph N/A   Overcast
1:35 PM 51.8 °F 51.8 °F 100% 29.91 in 7.0 mi ESE 15.0 mph 20.7 mph N/A   Overcast
1:55 PM 51.8 °F 51.8 °F 100% 29.90 in 8.0 mi ESE 19.6 mph 24.2 mph N/A   Overcast
2:15 PM 51.8 °F 51.8 °F 100% 29.88 in 10.0 mi East 16.1 mph 23.0 mph N/A   Overcast
2:35 PM 51.8 °F 50.0 °F 94% 29.88 in 10.0 mi ESE 20.7 mph 26.5 mph N/A   Overcast
2:55 PM 51.8 °F 50.0 °F 94% 29.88 in 10.0 mi ESE 18.4 mph 26.5 mph N/A   Overcast
3:15 PM 51.8 °F 50.0 °F 94% 29.87 in 10.0 mi ESE 16.1 mph 21.9 mph N/A   Overcast
3:35 PM 51.8 °F 50.0 °F 94% 29.88 in 6.0 mi ESE 13.8 mph 23.0 mph 0.01 in   Overcast
3:55 PM 51.8 °F 50.0 °F 94% 29.87 in 6.0 mi ESE 15.0 mph 20.7 mph 0.03 in   Overcast
4:15 PM 51.8 °F 51.8 °F 100% 29.87 in 6.0 mi ESE 13.8 mph - 0.01 in   Overcast
4:35 PM 51.8 °F 51.8 °F 100% 29.86 in 7.0 mi ESE 19.6 mph 25.3 mph 0.03 in   Overcast
4:55 PM 51.8 °F 51.8 °F 100% 29.86 in 7.0 mi ESE 17.3 mph 25.3 mph 0.03 in   Overcast
5:15 PM 51.8 °F 51.8 °F 100% 29.85 in 8.0 mi ESE 18.4 mph - 0.01 in   Overcast
5:35 PM 51.8 °F 51.8 °F 100% 29.85 in 4.0 mi ESE 17.3 mph 24.2 mph 0.02 in   Overcast
5:55 PM 51.8 °F 51.8 °F 100% 29.84 in 6.0 mi ESE 18.4 mph 23.0 mph 0.02 in   Overcast
6:15 PM 51.8 °F 50.0 °F 94% 29.84 in 6.0 mi East 13.8 mph 18.4 mph N/A   Overcast
6:35 PM 51.8 °F 50.0 °F 94% 29.83 in 3.0 mi East 12.7 mph 18.4 mph N/A   Overcast
6:55 PM 51.8 °F 50.0 °F 94% 29.82 in 2.5 mi East 13.8 mph - N/A   Overcast
7:15 PM 51.8 °F 51.8 °F 100% 29.82 in 2.5 mi East 13.8 mph 18.4 mph N/A   Overcast
7:35 PM 51.8 °F 50.0 °F 94% 29.81 in 2.0 mi East 12.7 mph - N/A   Overcast
7:55 PM 51.8 °F 50.0 °F 94% 29.82 in 2.5 mi East 11.5 mph - N/A   Overcast
8:15 PM 51.8 °F 51.8 °F 100% 29.82 in 3.0 mi East 11.5 mph - N/A   Overcast
8:35 PM 51.8 °F 51.8 °F 100% 29.81 in 2.0 mi East 11.5 mph - N/A   Overcast
8:55 PM 51.8 °F 51.8 °F 100% 29.81 in 1.8 mi ESE 8.1 mph - N/A   Overcast
9:15 PM 51.8 °F 51.8 °F 100% 29.79 in 2.5 mi East 11.5 mph - N/A   Overcast
9:35 PM 51.8 °F 51.8 °F 100% 29.80 in 3.0 mi ESE 12.7 mph 18.4 mph N/A   Overcast
9:55 PM 51.8 °F 51.8 °F 100% 29.80 in 2.5 mi ESE 9.2 mph - N/A   Overcast
10:15 PM 51.8 °F 51.8 °F 100% 29.79 in 1.5 mi ESE 9.2 mph - N/A   Overcast
10:35 PM 51.8 °F 51.8 °F 100% 29.79 in 0.8 mi ESE 9.2 mph - N/A   Overcast
10:55 PM 51.8 °F 51.8 °F 100% 29.79 in 0.8 mi ESE 10.4 mph - N/A   Overcast
11:15 PM 51.8 °F 50.0 °F 94% 29.79 in 0.5 mi ESE 9.2 mph - N/A   Overcast
11:35 PM 51.8 °F 50.0 °F 94% 29.78 in 0.5 mi ESE 6.9 mph - N/A   Overcast
11:55 PM 51.8 °F 50.0 °F 94% 29.77 in 0.5 mi ESE 9.2 mph - N/A   Overcast